Location: Dammartin
(48.9032°N, 1.6195°E)
Time: 21:37:41
(UTC+00:00)

Cosmos 1328 - Pass Details

Date: 03 February 2023
Orbit: 518 x 544 km, 82.5° (Epoch: 21 March)

Event Time Altitude Azimuth Distance (km) Brightness Sun altitude
Rises 17:44:48 0° 185° (S) 2,701 7.6 -8.7°
Reaches altitude 10° 17:46:57 10° 185° (S) 1,810 6.7 -9.0°
Maximum altitude 17:50:56 81° 98° (E) 556 3.7 -9.7°
Drops below altitude 10° 17:54:55 10° 12° (NNE) 1,810 6.2 -10.3°
Sets 17:57:04 0° 11° (N) 2,702 7.1 -10.7°
